Time,TemperatureF,DewpointF,PressureIn,WindDirection,WindDirectionDegrees,WindSpeedMPH,WindSpeedGustMPH,Humidity,HourlyPrecipIn,Conditions,Clouds,dailyrainin,SoftwareType,DateUTC
2013-08-18 00:03:00,63.9,57.2,29.68,NNE,17,0.0,0.0,79,0.00,,---,0.00,cosweather0.1e,2013-08-18 07:03:00,
2013-08-18 00:08:00,63.7,57.2,29.68,NE,35,0.0,2.7,79,0.00,,---,0.00,cosweather0.1e,2013-08-18 07:08:00,
2013-08-18 00:13:00,63.3,55.4,29.68,North,3,0.0,2.7,79,0.00,,---,0.00,cosweather0.1e,2013-08-18 07:13:00,
2013-08-18 00:18:00,63.3,55.4,29.68,NE,46,0.0,0.0,79,0.00,,---,0.00,cosweather0.1e,2013-08-18 07:18:00,
2013-08-18 00:23:00,63.3,55.4,29.68,NNE,18,0.0,0.0,79,0.00,,---,0.00,cosweather0.1e,2013-08-18 07:23:00,
2013-08-18 00:28:00,63.5,57.2,29.68,NE,38,0.0,3.1,80,0.00,,---,0.00,cosweather0.1e,2013-08-18 07:28:00,
2013-08-18 00:33:00,63.3,57.2,29.68,North,0,0.0,0.0,80,0.00,,---,0.00,cosweather0.1e,2013-08-18 07:33:00,
2013-08-18 00:38:00,63.5,57.2,29.68,North,357,0.0,0.0,80,0.00,,---,0.00,cosweather0.1e,2013-08-18 07:38:00,
2013-08-18 00:43:00,63.7,57.2,29.68,North,357,0.0,0.0,80,0.00,,---,0.00,cosweather0.1e,2013-08-18 07:43:00,
2013-08-18 00:48:00,63.9,57.2,29.68,North,357,0.0,0.0,79,0.00,,---,0.00,cosweather0.1e,2013-08-18 07:48:00,
2013-08-18 00:53:00,63.9,57.2,29.68,NE,36,0.0,0.0,79,0.00,,---,0.00,cosweather0.1e,2013-08-18 07:53:00,
2013-08-18 00:58:00,63.9,57.2,29.68,NE,36,0.0,0.0,79,0.00,,---,0.00,cosweather0.1e,2013-08-18 07:58:00,
2013-08-18 01:03:00,64.0,57.2,29.68,NE,36,0.0,0.0,78,0.00,,---,0.00,cosweather0.1e,2013-08-18 08:03:00,
2013-08-18 01:08:00,64.0,57.2,29.68,NE,36,0.0,0.0,78,0.00,,---,0.00,cosweather0.1e,2013-08-18 08:08:00,
2013-08-18 01:13:00,64.0,57.2,29.68,NE,36,0.0,0.0,78,0.00,,---,0.00,cosweather0.1e,2013-08-18 08:13:00,
2013-08-18 01:18:00,64.0,57.2,29.68,NE,36,0.0,0.0,77,0.00,,---,0.00,cosweather0.1e,2013-08-18 08:18:00,
2013-08-18 01:23:00,64.0,57.2,29.68,NE,36,0.0,0.0,77,0.00,,---,0.00,cosweather0.1e,2013-08-18 08:23:00,
2013-08-18 01:28:00,63.9,57.2,29.68,NE,36,0.0,0.0,77,0.00,,---,0.00,cosweather0.1e,2013-08-18 08:28:00,
2013-08-18 01:33:00,63.7,57.2,29.68,NE,36,0.0,0.0,77,0.00,,---,0.00,cosweather0.1e,2013-08-18 08:33:00,
2013-08-18 01:38:00,63.7,57.2,29.68,NE,36,0.0,0.0,77,0.00,,---,0.00,cosweather0.1e,2013-08-18 08:38:00,
2013-08-18 01:43:00,63.7,57.2,29.68,NE,36,0.0,0.0,76,0.00,,---,0.00,cosweather0.1e,2013-08-18 08:43:00,
2013-08-18 01:48:00,63.5,57.2,29.68,NE,36,0.0,0.0,76,0.00,,---,0.00,cosweather0.1e,2013-08-18 08:48:00,
2013-08-18 01:53:00,63.5,57.2,29.68,NE,36,0.0,0.0,76,0.00,,---,0.00,cosweather0.1e,2013-08-18 08:53:00,
2013-08-18 01:58:00,63.3,55.4,29.68,NE,36,0.0,0.0,76,0.00,,---,0.00,cosweather0.1e,2013-08-18 08:58:00,
2013-08-18 02:03:00,63.3,55.4,29.68,NE,36,0.0,0.0,76,0.00,,---,0.00,cosweather0.1e,2013-08-18 09:03:00,
2013-08-18 02:08:00,63.3,55.4,29.68,NE,36,0.0,0.0,76,0.00,,---,0.00,cosweather0.1e,2013-08-18 09:08:00,
2013-08-18 02:13:00,63.3,55.4,29.68,NE,36,0.0,0.0,76,0.00,,---,0.00,cosweather0.1e,2013-08-18 09:13:00,
2013-08-18 02:18:00,63.1,55.4,29.68,NE,36,0.0,0.0,76,0.00,,---,0.00,cosweather0.1e,2013-08-18 09:18:00,
2013-08-18 02:23:00,63.1,55.4,29.68,NE,36,0.0,0.0,76,0.00,,---,0.00,cosweather0.1e,2013-08-18 09:23:00,
2013-08-18 02:28:00,63.1,55.4,29.65,NE,36,0.0,0.0,76,0.00,,---,0.00,cosweather0.1e,2013-08-18 09:28:00,
2013-08-18 02:33:00,63.1,55.4,29.65,NE,36,0.0,0.0,76,0.00,,---,0.00,cosweather0.1e,2013-08-18 09:33:00,
2013-08-18 02:38:00,63.1,55.4,29.65,NE,36,0.0,0.0,75,0.00,,---,0.00,cosweather0.1e,2013-08-18 09:38:00,
2013-08-18 02:43:00,63.0,55.4,29.65,NE,36,0.0,0.0,75,0.00,,---,0.00,cosweather0.1e,2013-08-18 09:43:00,
2013-08-18 02:48:00,63.0,55.4,29.65,NE,36,0.0,0.0,75,0.00,,---,0.00,cosweather0.1e,2013-08-18 09:48:00,
2013-08-18 02:53:00,62.8,55.4,29.65,NE,36,0.0,0.0,76,0.00,,---,0.00,cosweather0.1e,2013-08-18 09:53:00,
2013-08-18 02:58:00,62.8,55.4,29.65,NE,36,0.0,0.0,76,0.00,,---,0.00,cosweather0.1e,2013-08-18 09:58:00,
2013-08-18 03:03:00,62.8,55.4,29.65,NE,36,0.0,0.0,76,0.00,,---,0.00,cosweather0.1e,2013-08-18 10:03:00,
2013-08-18 03:08:00,62.8,55.4,29.65,NE,36,0.0,0.0,76,0.00,,---,0.00,cosweather0.1e,2013-08-18 10:08:00,
2013-08-18 03:13:00,62.8,55.4,29.65,NE,36,0.0,0.0,76,0.00,,---,0.00,cosweather0.1e,2013-08-18 10:13:00,
2013-08-18 03:18:00,62.8,55.4,29.65,NE,36,0.0,0.0,76,0.00,,---,0.00,cosweather0.1e,2013-08-18 10:18:00,
2013-08-18 03:23:00,62.8,55.4,29.65,NE,36,0.0,0.0,76,0.00,,---,0.00,cosweather0.1e,2013-08-18 10:23:00,
2013-08-18 03:28:00,62.8,55.4,29.65,NE,36,0.0,0.0,76,0.00,,---,0.00,cosweather0.1e,2013-08-18 10:28:00,
2013-08-18 03:33:00,62.6,55.4,29.65,NE,36,0.0,0.0,76,0.00,,---,0.00,cosweather0.1e,2013-08-18 10:33:00,
2013-08-18 03:38:00,62.6,55.4,29.65,NE,36,0.0,0.0,76,0.00,,---,0.00,cosweather0.1e,2013-08-18 10:38:00,
2013-08-18 03:43:00,62.6,55.4,29.65,NE,36,0.0,0.0,76,0.00,,---,0.00,cosweather0.1e,2013-08-18 10:43:00,
2013-08-18 03:48:00,62.6,55.4,29.65,NE,36,0.0,0.0,76,0.00,,---,0.00,cosweather0.1e,2013-08-18 10:48:00,
2013-08-18 03:53:00,62.6,55.4,29.65,NE,36,0.0,0.0,76,0.00,,---,0.00,cosweather0.1e,2013-08-18 10:53:00,
2013-08-18 03:58:00,62.6,55.4,29.65,NE,36,0.0,0.0,76,0.00,,---,0.00,cosweather0.1e,2013-08-18 10:58:00,
2013-08-18 04:03:00,62.6,55.4,29.65,NE,36,0.0,0.0,76,0.00,,---,0.00,cosweather0.1e,2013-08-18 11:03:00,
2013-08-18 04:08:00,62.6,55.4,29.65,NE,36,0.0,0.0,76,0.00,,---,0.00,cosweather0.1e,2013-08-18 11:08:00,
2013-08-18 04:13:00,62.6,55.4,29.65,NE,36,0.0,0.0,76,0.00,,---,0.00,cosweather0.1e,2013-08-18 11:13:00,
2013-08-18 04:18:00,62.4,55.4,29.65,NE,36,0.0,0.0,76,0.00,,---,0.00,cosweather0.1e,2013-08-18 11:18:00,
2013-08-18 04:24:00,62.4,55.4,29.65,NE,36,0.0,0.0,76,0.00,,---,0.00,cosweather0.1e,2013-08-18 11:24:00,
2013-08-18 04:29:00,62.2,55.4,29.65,NE,36,0.0,0.0,76,0.00,,---,0.00,cosweather0.1e,2013-08-18 11:29:00,
2013-08-18 04:34:00,62.2,55.4,29.65,NE,36,0.0,0.0,76,0.00,,---,0.00,cosweather0.1e,2013-08-18 11:34:00,
2013-08-18 04:39:00,62.2,55.4,29.65,NE,36,0.0,0.0,77,0.00,,---,0.00,cosweather0.1e,2013-08-18 11:39:00,
2013-08-18 04:44:00,62.2,55.4,29.65,NE,36,0.0,0.0,77,0.00,,---,0.00,cosweather0.1e,2013-08-18 11:44:00,
2013-08-18 04:49:00,62.2,55.4,29.65,NE,36,0.0,0.0,77,0.00,,---,0.00,cosweather0.1e,2013-08-18 11:49:00,
2013-08-18 04:54:00,62.2,55.4,29.65,NE,36,0.0,0.0,77,0.00,,---,0.00,cosweather0.1e,2013-08-18 11:54:00,
2013-08-18 04:59:00,62.2,55.4,29.65,NE,36,0.0,0.0,77,0.00,,---,0.00,cosweather0.1e,2013-08-18 11:59:00,
2013-08-18 05:04:00,62.1,55.4,29.65,NE,36,0.0,0.0,77,0.00,,---,0.00,cosweather0.1e,2013-08-18 12:04:00,
2013-08-18 05:09:00,62.1,55.4,29.65,NE,36,0.0,0.0,77,0.00,,---,0.00,cosweather0.1e,2013-08-18 12:09:00,
2013-08-18 05:14:00,62.1,55.4,29.65,NE,36,0.0,0.0,77,0.00,,---,0.00,cosweather0.1e,2013-08-18 12:14:00,
2013-08-18 05:19:00,62.1,55.4,29.65,NE,36,0.0,0.0,77,0.00,,---,0.00,cosweather0.1e,2013-08-18 12:19:00,
2013-08-18 05:24:00,62.1,55.4,29.65,NE,36,0.0,0.0,77,0.00,,---,0.00,cosweather0.1e,2013-08-18 12:24:00,
2013-08-18 05:29:00,62.2,55.4,29.65,NE,36,0.0,0.0,78,0.00,,---,0.00,cosweather0.1e,2013-08-18 12:29:00,
2013-08-18 05:34:00,62.1,55.4,29.65,NE,36,0.0,0.0,78,0.00,,---,0.00,cosweather0.1e,2013-08-18 12:34:00,
2013-08-18 05:39:00,62.1,55.4,29.65,NE,36,0.0,0.0,78,0.00,,---,0.00,cosweather0.1e,2013-08-18 12:39:00,
2013-08-18 05:44:00,61.9,55.4,29.65,NE,36,0.0,0.0,78,0.00,,---,0.00,cosweather0.1e,2013-08-18 12:44:00,
2013-08-18 05:49:00,61.9,55.4,29.65,NE,36,0.0,0.0,79,0.00,,---,0.00,cosweather0.1e,2013-08-18 12:49:00,
2013-08-18 05:54:00,61.9,55.4,29.65,NE,36,0.0,0.0,79,0.00,,---,0.00,cosweather0.1e,2013-08-18 12:54:00,
2013-08-18 05:59:00,61.9,55.4,29.65,NE,36,0.0,0.0,79,0.00,,---,0.00,cosweather0.1e,2013-08-18 12:59:00,
2013-08-18 06:05:00,61.9,55.4,29.65,NE,36,0.0,0.0,79,0.00,,---,0.00,cosweather0.1e,2013-08-18 13:05:00,
2013-08-18 06:10:00,61.9,55.4,29.65,NE,36,0.0,0.0,79,0.00,,---,0.00,cosweather0.1e,2013-08-18 13:10:00,
2013-08-18 06:15:00,61.7,55.4,29.65,NE,36,0.0,0.0,79,0.00,,---,0.00,cosweather0.1e,2013-08-18 13:15:00,
2013-08-18 06:20:00,61.7,55.4,29.65,NE,36,0.0,0.0,79,0.00,,---,0.00,cosweather0.1e,2013-08-18 13:20:00,
2013-08-18 06:25:00,61.7,55.4,29.65,NE,36,0.0,0.0,79,0.00,,---,0.00,cosweather0.1e,2013-08-18 13:25:00,
2013-08-18 06:30:00,61.5,53.6,29.65,NE,35,0.0,0.0,79,0.00,,---,0.00,cosweather0.1e,2013-08-18 13:30:00,
2013-08-18 06:35:00,61.7,57.2,29.65,NE,35,0.0,0.0,80,0.00,,---,0.00,cosweather0.1e,2013-08-18 13:35:00,
2013-08-18 06:40:00,61.7,57.2,29.68,NE,36,0.0,0.0,80,0.00,,---,0.00,cosweather0.1e,2013-08-18 13:40:00,
2013-08-18 06:45:00,61.7,57.2,29.68,NE,35,0.0,0.0,80,0.00,,---,0.00,cosweather0.1e,2013-08-18 13:45:00,
2013-08-18 06:50:00,61.7,57.2,29.68,NE,35,0.0,0.0,80,0.00,,---,0.00,cosweather0.1e,2013-08-18 13:50:00,
2013-08-18 06:55:00,61.7,57.2,29.68,NE,35,0.0,0.0,80,0.00,,---,0.00,cosweather0.1e,2013-08-18 13:55:00,
2013-08-18 07:00:00,61.5,53.6,29.68,NE,35,0.0,0.0,79,0.00,,---,0.00,cosweather0.1e,2013-08-18 14:00:00,
2013-08-18 07:05:00,61.5,53.6,29.68,NE,36,0.0,0.0,79,0.00,,---,0.00,cosweather0.1e,2013-08-18 14:05:00,
2013-08-18 07:10:00,61.3,53.6,29.68,WNW,300,0.0,0.0,79,0.00,,---,0.00,cosweather0.1e,2013-08-18 14:10:00,
2013-08-18 07:15:00,61.5,55.4,29.68,NNW,343,0.0,0.0,80,0.00,,---,0.00,cosweather0.1e,2013-08-18 14:15:00,
2013-08-18 07:20:00,61.5,55.4,29.68,North,353,0.0,0.0,80,0.00,,---,0.00,cosweather0.1e,2013-08-18 14:20:00,
2013-08-18 07:25:00,61.7,57.2,29.68,North,0,0.0,0.0,81,0.00,,---,0.00,cosweather0.1e,2013-08-18 14:25:00,
2013-08-18 07:30:00,61.9,57.2,29.68,West,280,0.0,0.0,81,0.00,,---,0.00,cosweather0.1e,2013-08-18 14:30:00,
2013-08-18 07:35:00,62.1,57.2,29.68,North,3,0.0,2.7,82,0.00,,---,0.00,cosweather0.1e,2013-08-18 14:35:00,
2013-08-18 07:40:00,62.4,57.2,29.68,NNW,332,0.0,0.0,82,0.00,,---,0.00,cosweather0.1e,2013-08-18 14:40:00,
2013-08-18 07:45:00,62.6,57.2,29.68,WNW,303,0.0,0.0,82,0.00,,---,0.00,cosweather0.1e,2013-08-18 14:45:00,
2013-08-18 07:50:00,62.6,57.2,29.68,WNW,303,0.0,0.0,82,0.00,,---,0.00,cosweather0.1e,2013-08-18 14:50:00,
2013-08-18 07:55:00,62.8,57.2,29.68,WNW,303,0.0,0.0,82,0.00,,---,0.00,cosweather0.1e,2013-08-18 14:55:00,
2013-08-18 08:00:00,62.8,57.2,29.68,WNW,303,0.0,0.0,82,0.00,,---,0.00,cosweather0.1e,2013-08-18 15:00:00,
2013-08-18 08:05:00,62.8,57.2,29.68,WNW,303,0.0,0.0,82,0.00,,---,0.00,cosweather0.1e,2013-08-18 15:05:00,
2013-08-18 08:10:00,62.8,57.2,29.68,WNW,303,0.0,0.0,83,0.00,,---,0.00,cosweather0.1e,2013-08-18 15:10:00,
2013-08-18 08:16:00,62.8,57.2,29.68,NW,304,0.0,0.0,83,0.00,,---,0.00,cosweather0.1e,2013-08-18 15:16:00,
2013-08-18 08:21:00,63.0,57.2,29.68,NW,304,0.0,0.0,83,0.00,,---,0.00,cosweather0.1e,2013-08-18 15:21:00,
2013-08-18 08:26:00,63.0,57.2,29.68,NW,304,0.0,0.0,83,0.00,,---,0.00,cosweather0.1e,2013-08-18 15:26:00,
2013-08-18 08:31:00,63.1,57.2,29.68,NW,304,0.0,0.0,83,0.00,,---,0.00,cosweather0.1e,2013-08-18 15:31:00,
2013-08-18 08:36:00,63.1,57.2,29.68,NW,304,0.0,0.0,83,0.00,,---,0.00,cosweather0.1e,2013-08-18 15:36:00,
2013-08-18 08:41:00,63.3,57.2,29.68,WSW,243,0.0,0.0,83,0.00,,---,0.00,cosweather0.1e,2013-08-18 15:41:00,
2013-08-18 08:46:00,63.5,59.0,29.68,SSW,199,0.0,0.0,84,0.00,,---,0.00,cosweather0.1e,2013-08-18 15:46:00,
2013-08-18 08:51:00,63.9,59.0,29.68,SSW,204,0.0,0.0,84,0.00,,---,0.00,cosweather0.1e,2013-08-18 15:51:00,
2013-08-18 08:56:00,64.0,59.0,29.68,SSW,204,0.0,0.0,84,0.00,,---,0.00,cosweather0.1e,2013-08-18 15:56:00,
2013-08-18 09:01:00,64.2,59.0,29.68,SSW,196,0.0,0.0,84,0.00,,---,0.00,cosweather0.1e,2013-08-18 16:01:00,
2013-08-18 09:06:00,64.4,59.0,29.68,SW,215,0.0,0.0,84,0.00,,---,0.00,cosweather0.1e,2013-08-18 16:06:00,
2013-08-18 09:11:00,64.8,59.0,29.68,South,184,0.0,0.0,84,0.00,,---,0.00,cosweather0.1e,2013-08-18 16:11:00,
2013-08-18 09:16:00,64.9,59.0,29.68,South,178,0.0,3.1,84,0.00,,---,0.00,cosweather0.1e,2013-08-18 16:16:00,
2013-08-18 09:21:00,65.1,59.0,29.68,South,184,0.0,2.2,84,0.00,,---,0.00,cosweather0.1e,2013-08-18 16:21:00,
2013-08-18 09:26:00,65.5,60.8,29.68,South,170,0.0,5.4,83,0.00,,---,0.00,cosweather0.1e,2013-08-18 16:26:00,
2013-08-18 09:31:00,65.7,60.8,29.68,South,180,0.0,4.9,83,0.00,,---,0.00,cosweather0.1e,2013-08-18 16:31:00,
2013-08-18 09:36:00,66.0,60.8,29.68,SSW,205,0.0,4.9,83,0.00,,---,0.00,cosweather0.1e,2013-08-18 16:36:00,
2013-08-18 09:41:00,66.2,60.8,29.68,SSW,206,0.0,2.7,82,0.00,,---,0.00,cosweather0.1e,2013-08-18 16:41:00,
2013-08-18 09:46:00,66.6,60.8,29.68,SSW,206,0.0,4.0,82,0.00,,---,0.00,cosweather0.1e,2013-08-18 16:46:00,
2013-08-18 09:51:00,66.6,60.8,29.68,South,180,0.0,0.0,81,0.00,,---,0.00,cosweather0.1e,2013-08-18 16:51:00,
2013-08-18 09:56:00,66.7,60.8,29.68,SSW,211,0.0,4.0,81,0.00,,---,0.00,cosweather0.1e,2013-08-18 16:56:00,
2013-08-18 10:01:00,66.9,60.8,29.68,SSW,210,0.0,3.6,81,0.00,,---,0.00,cosweather0.1e,2013-08-18 17:01:00,
2013-08-18 10:06:00,67.3,62.6,29.68,SW,234,0.0,0.0,81,0.00,,---,0.00,cosweather0.1e,2013-08-18 17:06:00,
2013-08-18 10:11:00,67.5,62.6,29.68,South,184,0.0,0.0,81,0.00,,---,0.00,cosweather0.1e,2013-08-18 17:11:00,
2013-08-18 10:16:00,67.8,60.8,29.68,South,186,0.0,3.6,80,0.00,,---,0.00,cosweather0.1e,2013-08-18 17:16:00,
2013-08-18 10:21:00,68.0,60.8,29.68,South,190,0.0,3.1,80,0.00,,---,0.00,cosweather0.1e,2013-08-18 17:21:00,
2013-08-18 10:26:00,68.4,60.8,29.68,SW,234,0.0,0.0,79,0.00,,---,0.00,cosweather0.1e,2013-08-18 17:26:00,
2013-08-18 10:31:00,68.5,60.8,29.68,WSW,253,0.0,0.0,79,0.00,,---,0.00,cosweather0.1e,2013-08-18 17:31:00,
2013-08-18 10:36:00,68.9,62.6,29.68,SSW,194,0.0,0.0,78,0.00,,---,0.00,cosweather0.1e,2013-08-18 17:36:00,
2013-08-18 10:41:00,69.1,62.6,29.68,WSW,239,0.0,2.7,77,0.00,,---,0.00,cosweather0.1e,2013-08-18 17:41:00,
2013-08-18 10:46:00,69.6,62.6,29.68,North,357,0.0,2.2,77,0.00,,---,0.00,cosweather0.1e,2013-08-18 17:46:00,
2013-08-18 10:51:00,70.0,62.6,29.68,South,187,0.0,0.0,76,0.00,,---,0.00,cosweather0.1e,2013-08-18 17:51:00,
2013-08-18 10:56:00,70.7,62.6,29.68,SW,236,0.0,3.6,74,0.00,,---,0.00,cosweather0.1e,2013-08-18 17:56:00,
2013-08-18 11:01:00,71.2,62.6,29.68,SW,229,0.0,3.1,74,0.00,,---,0.00,cosweather0.1e,2013-08-18 18:01:00,
2013-08-18 11:06:00,71.6,62.6,29.68,SW,233,0.0,3.1,73,0.00,,---,0.00,cosweather0.1e,2013-08-18 18:06:00,
2013-08-18 11:11:00,71.8,62.6,29.68,South,184,0.0,3.6,72,0.00,,---,0.00,cosweather0.1e,2013-08-18 18:11:00,
2013-08-18 11:16:00,72.1,60.8,29.68,SSW,208,0.0,0.0,70,0.00,,---,0.00,cosweather0.1e,2013-08-18 18:16:00,
2013-08-18 11:21:00,72.3,60.8,29.68,WNW,303,0.0,0.0,68,0.00,,---,0.00,cosweather0.1e,2013-08-18 18:21:00,
2013-08-18 11:26:00,72.7,62.6,29.68,ENE,60,0.0,0.0,69,0.00,,---,0.00,cosweather0.1e,2013-08-18 18:26:00,
2013-08-18 11:31:00,73.2,62.6,29.68,South,186,0.0,0.0,69,0.00,,---,0.00,cosweather0.1e,2013-08-18 18:31:00,
2013-08-18 11:36:00,73.8,62.6,29.68,WNW,301,0.0,3.1,68,0.00,,---,0.00,cosweather0.1e,2013-08-18 18:36:00,
2013-08-18 11:41:00,74.1,62.6,29.65,SW,230,0.0,0.0,68,0.00,,---,0.00,cosweather0.1e,2013-08-18 18:41:00,
2013-08-18 11:46:00,74.7,64.4,29.65,West,279,0.0,5.4,68,0.00,,---,0.00,cosweather0.1e,2013-08-18 18:46:00,
2013-08-18 11:51:00,75.4,62.6,29.65,NW,311,0.0,2.2,65,0.00,,---,0.00,cosweather0.1e,2013-08-18 18:51:00,
2013-08-18 11:56:00,75.9,62.6,29.65,SSW,213,0.0,2.7,65,0.00,,---,0.00,cosweather0.1e,2013-08-18 18:56:00,
2013-08-18 12:01:00,76.5,62.6,29.65,West,263,0.0,2.7,62,0.00,,---,0.00,cosweather0.1e,2013-08-18 19:01:00,
2013-08-18 12:06:00,76.8,62.6,29.65,SSW,198,0.0,2.7,61,0.00,,---,0.00,cosweather0.1e,2013-08-18 19:06:00,
2013-08-18 12:12:00,77.2,62.6,29.65,West,274,0.0,5.4,60,0.00,,---,0.00,cosweather0.1e,2013-08-18 19:12:00,
2013-08-18 12:17:00,77.9,62.6,29.65,SW,217,0.0,2.7,58,0.00,,---,0.00,cosweather0.1e,2013-08-18 19:17:00,
2013-08-18 12:22:00,78.4,62.6,29.65,West,273,0.0,4.0,58,0.00,,---,0.00,cosweather0.1e,2013-08-18 19:22:00,
2013-08-18 12:27:00,79.2,62.6,29.65,SW,233,0.0,3.6,56,0.00,,---,0.00,cosweather0.1e,2013-08-18 19:27:00,
2013-08-18 12:32:00,79.7,62.6,29.65,West,272,0.0,0.0,55,0.00,,---,0.00,cosweather0.1e,2013-08-18 19:32:00,
2013-08-18 12:37:00,80.4,62.6,29.65,SSW,199,0.0,4.9,55,0.00,,---,0.00,cosweather0.1e,2013-08-18 19:37:00,
2013-08-18 12:42:00,81.0,60.8,29.65,NNW,337,0.0,4.0,52,0.00,,---,0.00,cosweather0.1e,2013-08-18 19:42:00,
2013-08-18 12:47:00,81.5,60.8,29.65,NW,317,0.0,3.1,49,0.00,,---,0.00,cosweather0.1e,2013-08-18 19:47:00,
2013-08-18 12:52:00,82.2,62.6,29.65,NNW,329,0.0,3.1,50,0.00,,---,0.00,cosweather0.1e,2013-08-18 19:52:00,
2013-08-18 12:57:00,82.6,59.0,29.61,NW,323,0.0,2.7,45,0.00,,---,0.00,cosweather0.1e,2013-08-18 19:57:00,
2013-08-18 13:02:00,82.9,59.0,29.61,NW,308,0.0,8.1,46,0.00,,---,0.00,cosweather0.1e,2013-08-18 20:02:00,
2013-08-18 13:07:00,83.8,62.6,29.61,SW,235,0.0,4.0,48,0.00,,---,0.00,cosweather0.1e,2013-08-18 20:07:00,
2013-08-18 13:12:00,84.2,60.8,29.61,West,261,0.0,5.4,45,0.00,,---,0.00,cosweather0.1e,2013-08-18 20:12:00,
2013-08-18 13:17:00,84.9,60.8,29.61,SW,236,0.0,2.7,45,0.00,,---,0.00,cosweather0.1e,2013-08-18 20:17:00,
2013-08-18 13:22:00,85.3,60.8,29.61,NW,311,0.0,3.1,43,0.00,,---,0.00,cosweather0.1e,2013-08-18 20:22:00,
2013-08-18 13:27:00,85.6,60.8,29.61,West,268,0.0,0.0,43,0.00,,---,0.00,cosweather0.1e,2013-08-18 20:27:00,
2013-08-18 13:32:00,86.0,60.8,29.61,WSW,241,0.0,4.0,42,0.00,,---,0.00,cosweather0.1e,2013-08-18 20:32:00,
2013-08-18 13:37:00,86.4,60.8,29.61,WSW,257,0.0,5.8,42,0.00,,---,0.00,cosweather0.1e,2013-08-18 20:37:00,
2013-08-18 13:42:00,86.5,59.0,29.61,NNW,348,0.0,4.0,41,0.00,,---,0.00,cosweather0.1e,2013-08-18 20:42:00,
2013-08-18 13:47:00,86.5,59.0,29.61,WSW,255,0.0,7.6,41,0.00,,---,0.00,cosweather0.1e,2013-08-18 20:47:00,
2013-08-18 13:52:00,86.7,59.0,29.61,WNW,282,0.0,3.6,41,0.00,,---,0.00,cosweather0.1e,2013-08-18 20:52:00,
2013-08-18 13:57:00,87.1,60.8,29.61,WSW,258,0.0,2.7,40,0.00,,---,0.00,cosweather0.1e,2013-08-18 20:57:00,
2013-08-18 14:02:00,87.4,60.8,29.61,NNW,338,0.0,4.5,40,0.00,,---,0.00,cosweather0.1e,2013-08-18 21:02:00,
2013-08-18 14:07:00,87.6,60.8,29.61,WNW,300,0.0,5.4,40,0.00,,---,0.00,cosweather0.1e,2013-08-18 21:07:00,
2013-08-18 14:12:00,87.6,59.0,29.61,WNW,300,0.0,4.9,38,0.00,,---,0.00,cosweather0.1e,2013-08-18 21:12:00,
2013-08-18 14:17:00,88.0,59.0,29.61,West,260,0.0,6.3,38,0.00,,---,0.00,cosweather0.1e,2013-08-18 21:17:00,
2013-08-18 14:22:00,88.2,59.0,29.61,NW,304,0.0,3.1,38,0.00,,---,0.00,cosweather0.1e,2013-08-18 21:22:00,
2013-08-18 14:27:00,88.5,59.0,29.61,WSW,254,0.0,4.0,37,0.00,,---,0.00,cosweather0.1e,2013-08-18 21:27:00,
2013-08-18 14:32:00,88.7,60.8,29.61,WSW,247,0.0,0.0,38,0.00,,---,0.00,cosweather0.1e,2013-08-18 21:32:00,
2013-08-18 14:37:00,88.9,59.0,29.61,WSW,257,0.0,6.3,35,0.00,,---,0.00,cosweather0.1e,2013-08-18 21:37:00,
2013-08-18 14:42:00,88.9,59.0,29.61,West,262,0.0,4.9,35,0.00,,---,0.00,cosweather0.1e,2013-08-18 21:42:00,
2013-08-18 14:47:00,89.2,57.2,29.61,WNW,298,0.0,5.8,34,0.00,,---,0.00,cosweather0.1e,2013-08-18 21:47:00,
2013-08-18 14:52:00,89.4,57.2,29.61,WNW,303,0.0,3.6,33,0.00,,---,0.00,cosweather0.1e,2013-08-18 21:52:00,
2013-08-18 14:57:00,89.8,55.4,29.57,South,173,0.0,4.0,32,0.00,,---,0.00,cosweather0.1e,2013-08-18 21:57:00,
2013-08-18 15:02:00,89.8,55.4,29.57,NNW,334,0.0,4.9,31,0.00,,---,0.00,cosweather0.1e,2013-08-18 22:02:00,
2013-08-18 15:07:00,90.1,55.4,29.57,NW,321,0.0,6.7,32,0.00,,---,0.00,cosweather0.1e,2013-08-18 22:07:00,
2013-08-18 15:12:00,90.1,53.6,29.57,NNW,328,0.0,3.1,30,0.00,,---,0.00,cosweather0.1e,2013-08-18 22:12:00,
2013-08-18 15:17:00,90.3,53.6,29.57,NW,321,0.0,5.4,29,0.00,,---,0.00,cosweather0.1e,2013-08-18 22:17:00,
2013-08-18 15:22:00,90.3,53.6,29.57,WSW,237,0.0,4.0,29,0.00,,---,0.00,cosweather0.1e,2013-08-18 22:22:00,
2013-08-18 15:27:00,90.3,51.8,29.57,NW,311,0.0,8.1,28,0.00,,---,0.00,cosweather0.1e,2013-08-18 22:27:00,
2013-08-18 15:32:00,90.5,53.6,29.57,NNW,340,0.0,6.3,28,0.00,,---,0.00,cosweather0.1e,2013-08-18 22:32:00,
2013-08-18 15:37:00,90.9,53.6,29.57,WNW,282,0.0,8.3,28,0.00,,---,0.00,cosweather0.1e,2013-08-18 22:37:00,
2013-08-18 15:42:00,91.2,53.6,29.57,NW,315,0.0,5.8,28,0.00,,---,0.00,cosweather0.1e,2013-08-18 22:42:00,
2013-08-18 15:47:00,91.2,53.6,29.57,NW,324,0.0,8.1,28,0.00,,---,0.00,cosweather0.1e,2013-08-18 22:47:00,
2013-08-18 15:52:00,91.2,53.6,29.57,NW,308,0.0,6.3,28,0.00,,---,0.00,cosweather0.1e,2013-08-18 22:52:00,
2013-08-18 15:57:00,91.2,53.6,29.53,NW,309,0.0,4.0,27,0.00,,---,0.00,cosweather0.1e,2013-08-18 22:57:00,
2013-08-18 16:02:00,91.2,53.6,29.53,NW,309,0.0,8.1,28,0.00,,---,0.00,cosweather0.1e,2013-08-18 23:02:00,
2013-08-18 16:07:00,91.0,53.6,29.53,NNW,332,0.0,5.4,28,0.00,,---,0.00,cosweather0.1e,2013-08-18 23:07:00,
2013-08-18 16:12:00,91.0,53.6,29.53,West,274,0.0,5.8,28,0.00,,---,0.00,cosweather0.1e,2013-08-18 23:12:00,
2013-08-18 16:17:00,91.2,53.6,29.53,NNW,328,0.0,3.1,28,0.00,,---,0.00,cosweather0.1e,2013-08-18 23:17:00,
2013-08-18 16:22:00,91.0,53.6,29.53,WNW,289,0.0,5.8,28,0.00,,---,0.00,cosweather0.1e,2013-08-18 23:22:00,
2013-08-18 16:27:00,91.0,55.4,29.53,WSW,257,0.0,5.4,29,0.00,,---,0.00,cosweather0.1e,2013-08-18 23:27:00,
2013-08-18 16:32:00,90.9,55.4,29.53,NW,306,0.0,2.2,29,0.00,,---,0.00,cosweather0.1e,2013-08-18 23:32:00,
2013-08-18 16:37:00,91.0,55.4,29.53,NNW,332,0.0,6.3,29,0.00,,---,0.00,cosweather0.1e,2013-08-18 23:37:00,
2013-08-18 16:42:00,91.2,55.4,29.53,WNW,300,0.0,3.6,29,0.00,,---,0.00,cosweather0.1e,2013-08-18 23:42:00,
2013-08-18 16:47:00,91.2,55.4,29.53,WSW,258,0.0,3.1,29,0.00,,---,0.00,cosweather0.1e,2013-08-18 23:47:00,
2013-08-18 16:52:00,90.7,55.4,29.53,NW,320,0.0,2.7,29,0.00,,---,0.00,cosweather0.1e,2013-08-18 23:52:00,
2013-08-18 16:57:00,90.1,53.6,29.53,SSW,211,0.0,4.9,29,0.00,,---,0.00,cosweather0.1e,2013-08-18 23:57:00,
2013-08-18 17:03:00,90.0,53.6,29.53,WSW,254,0.0,5.8,30,0.00,,---,0.00,cosweather0.1e,2013-08-19 00:03:00,
2013-08-18 17:08:00,89.6,53.6,29.53,WNW,298,0.0,5.4,30,0.00,,---,0.00,cosweather0.1e,2013-08-19 00:08:00,
2013-08-18 17:13:00,89.6,53.6,29.53,WNW,300,0.0,6.3,30,0.00,,---,0.00,cosweather0.1e,2013-08-19 00:13:00,
2013-08-18 17:17:00,89.6,53.6,29.53,North,353,0.0,6.3,30,0.00,,---,0.00,cosweather0.1e,2013-08-19 00:17:00,
2013-08-18 17:23:00,89.6,53.6,29.53,NW,323,0.0,5.4,30,0.00,,---,0.00,cosweather0.1e,2013-08-19 00:23:00,
2013-08-18 17:28:00,89.4,53.6,29.53,WSW,258,0.0,6.3,30,0.00,,---,0.00,cosweather0.1e,2013-08-19 00:28:00,
2013-08-18 17:33:00,89.2,53.6,29.53,NW,317,0.0,6.3,30,0.00,,---,0.00,cosweather0.1e,2013-08-19 00:33:00,
2013-08-18 17:38:00,89.2,53.6,29.53,North,353,0.0,5.4,29,0.00,,---,0.00,cosweather0.1e,2013-08-19 00:38:00,
2013-08-18 17:43:00,89.1,53.6,29.53,WNW,283,0.0,5.4,29,0.00,,---,0.00,cosweather0.1e,2013-08-19 00:43:00,
2013-08-18 17:48:00,89.1,53.6,29.53,WNW,299,0.0,5.4,30,0.00,,---,0.00,cosweather0.1e,2013-08-19 00:48:00,
2013-08-18 17:53:00,88.9,53.6,29.53,WNW,297,0.0,5.4,30,0.00,,---,0.00,cosweather0.1e,2013-08-19 00:53:00,
2013-08-18 17:58:00,88.7,53.6,29.53,NW,319,0.0,2.7,30,0.00,,---,0.00,cosweather0.1e,2013-08-19 00:58:00,
2013-08-18 18:03:00,88.9,53.6,29.53,NW,316,0.0,4.0,30,0.00,,---,0.00,cosweather0.1e,2013-08-19 01:03:00,
2013-08-18 18:08:00,88.7,53.6,29.53,NNW,346,0.0,4.9,30,0.00,,---,0.00,cosweather0.1e,2013-08-19 01:08:00,
2013-08-18 18:13:00,88.3,51.8,29.53,NW,307,0.0,3.1,30,0.00,,---,0.00,cosweather0.1e,2013-08-19 01:13:00,
2013-08-18 18:18:00,88.0,51.8,29.53,NW,305,0.0,6.7,30,0.00,,---,0.00,cosweather0.1e,2013-08-19 01:18:00,
2013-08-18 18:23:00,87.6,51.8,29.53,NNW,337,0.0,3.6,30,0.00,,---,0.00,cosweather0.1e,2013-08-19 01:23:00,
2013-08-18 18:28:00,87.4,51.8,29.53,North,353,0.0,4.9,30,0.00,,---,0.00,cosweather0.1e,2013-08-19 01:28:00,
2013-08-18 18:33:00,87.1,53.6,29.53,WNW,301,0.0,3.6,31,0.00,,---,0.00,cosweather0.1e,2013-08-19 01:33:00,
2013-08-18 18:38:00,86.7,53.6,29.53,North,0,0.0,3.6,32,0.00,,---,0.00,cosweather0.1e,2013-08-19 01:38:00,
2013-08-18 18:43:00,86.4,51.8,29.53,NW,316,0.0,6.3,31,0.00,,---,0.00,cosweather0.1e,2013-08-19 01:43:00,
2013-08-18 18:48:00,86.0,51.8,29.53,North,353,0.0,5.8,31,0.00,,---,0.00,cosweather0.1e,2013-08-19 01:48:00,
2013-08-18 18:53:00,85.6,51.8,29.53,NW,317,0.0,2.7,31,0.00,,---,0.00,cosweather0.1e,2013-08-19 01:53:00,
2013-08-18 18:58:00,85.3,53.6,29.53,North,353,0.0,7.2,32,0.00,,---,0.00,cosweather0.1e,2013-08-19 01:58:00,
2013-08-18 19:03:00,85.3,53.6,29.53,NNW,329,0.0,5.8,32,0.00,,---,0.00,cosweather0.1e,2013-08-19 02:03:00,
2013-08-18 19:08:00,85.1,53.6,29.53,WNW,300,0.0,5.4,33,0.00,,---,0.00,cosweather0.1e,2013-08-19 02:08:00,
2013-08-18 19:13:00,84.7,51.8,29.53,WNW,296,0.0,4.0,33,0.00,,---,0.00,cosweather0.1e,2013-08-19 02:13:00,
2013-08-18 19:18:00,84.6,53.6,29.53,NNW,337,0.0,4.0,36,0.00,,---,0.00,cosweather0.1e,2013-08-19 02:18:00,
2013-08-18 19:23:00,84.4,53.6,29.53,WNW,298,0.0,3.1,36,0.00,,---,0.00,cosweather0.1e,2013-08-19 02:23:00,
2013-08-18 19:28:00,84.2,53.6,29.53,NNW,328,0.0,2.7,36,0.00,,---,0.00,cosweather0.1e,2013-08-19 02:28:00,
2013-08-18 19:33:00,84.0,55.4,29.53,NW,324,0.0,2.7,37,0.00,,---,0.00,cosweather0.1e,2013-08-19 02:33:00,
2013-08-18 19:38:00,83.8,55.4,29.53,NNW,329,0.0,6.3,38,0.00,,---,0.00,cosweather0.1e,2013-08-19 02:38:00,
2013-08-18 19:43:00,83.5,57.2,29.53,NNW,328,0.0,3.1,39,0.00,,---,0.00,cosweather0.1e,2013-08-19 02:43:00,
2013-08-18 19:48:00,83.1,55.4,29.53,NNW,330,0.0,4.9,39,0.00,,---,0.00,cosweather0.1e,2013-08-19 02:48:00,
2013-08-18 19:53:00,82.9,55.4,29.53,NW,323,0.0,3.6,39,0.00,,---,0.00,cosweather0.1e,2013-08-19 02:53:00,
2013-08-18 19:58:00,82.8,55.4,29.53,NW,311,0.0,2.7,39,0.00,,---,0.00,cosweather0.1e,2013-08-19 02:58:00,
2013-08-18 20:03:00,82.6,55.4,29.53,NW,319,0.0,2.7,40,0.00,,---,0.00,cosweather0.1e,2013-08-19 03:03:00,
2013-08-18 20:08:00,82.4,55.4,29.53,NW,307,0.0,2.2,40,0.00,,---,0.00,cosweather0.1e,2013-08-19 03:08:00,
2013-08-18 20:13:00,82.2,55.4,29.53,WNW,295,0.0,0.0,40,0.00,,---,0.00,cosweather0.1e,2013-08-19 03:13:00,
2013-08-18 20:18:00,82.0,57.2,29.53,WNW,294,0.0,0.0,41,0.00,,---,0.00,cosweather0.1e,2013-08-19 03:18:00,
2013-08-18 20:23:00,81.9,57.2,29.53,West,260,0.0,0.0,41,0.00,,---,0.00,cosweather0.1e,2013-08-19 03:23:00,
2013-08-18 20:28:00,81.3,55.4,29.53,WSW,246,0.0,0.0,42,0.00,,---,0.00,cosweather0.1e,2013-08-19 03:28:00,
2013-08-18 20:33:00,80.8,55.4,29.53,WSW,247,0.0,0.0,42,0.00,,---,0.00,cosweather0.1e,2013-08-19 03:33:00,
2013-08-18 20:38:00,80.2,57.2,29.53,SSW,194,0.0,0.0,44,0.00,,---,0.00,cosweather0.1e,2013-08-19 03:38:00,
2013-08-18 20:43:00,79.5,55.4,29.57,South,189,0.0,0.0,45,0.00,,---,0.00,cosweather0.1e,2013-08-19 03:43:00,
2013-08-18 20:48:00,79.0,57.2,29.57,SSW,194,0.0,0.0,46,0.00,,---,0.00,cosweather0.1e,2013-08-19 03:48:00,
2013-08-18 20:53:00,78.6,57.2,29.57,SSW,201,0.0,0.0,48,0.00,,---,0.00,cosweather0.1e,2013-08-19 03:53:00,
2013-08-18 20:58:00,78.6,57.2,29.57,SSW,200,0.0,0.0,48,0.00,,---,0.00,cosweather0.1e,2013-08-19 03:58:00,
2013-08-18 21:01:00,78.6,57.2,29.57,SSW,200,0.0,0.0,48,0.00,,---,0.00,cosweather0.1e,2013-08-19 04:01:00,
2013-08-18 21:06:00,78.6,57.2,29.57,SSW,200,0.0,0.0,49,0.00,,---,0.00,cosweather0.1e,2013-08-19 04:06:00,
2013-08-18 21:11:00,78.6,57.2,29.57,SSW,200,0.0,0.0,49,0.00,,---,0.00,cosweather0.1e,2013-08-19 04:11:00,
2013-08-18 21:16:00,78.6,57.2,29.57,SSW,200,0.0,0.0,49,0.00,,---,0.00,cosweather0.1e,2013-08-19 04:16:00,
2013-08-18 21:21:00,78.3,57.2,29.57,SSW,200,0.0,0.0,49,0.00,,---,0.00,cosweather0.1e,2013-08-19 04:21:00,
2013-08-18 21:26:00,77.9,59.0,29.57,SSW,200,0.0,0.0,50,0.00,,---,0.00,cosweather0.1e,2013-08-19 04:26:00,
2013-08-18 21:31:00,77.7,57.2,29.57,SSW,200,0.0,0.0,50,0.00,,---,0.00,cosweather0.1e,2013-08-19 04:31:00,
2013-08-18 21:36:00,77.5,57.2,29.57,South,186,0.0,0.0,50,0.00,,---,0.00,cosweather0.1e,2013-08-19 04:36:00,
2013-08-18 21:41:00,77.4,57.2,29.57,ENE,66,0.0,0.0,50,0.00,,---,0.00,cosweather0.1e,2013-08-19 04:41:00,
2013-08-18 21:46:00,77.4,57.2,29.57,ENE,65,0.0,0.0,51,0.00,,---,0.00,cosweather0.1e,2013-08-19 04:46:00,
2013-08-18 21:51:00,77.4,57.2,29.57,ENE,65,0.0,0.0,51,0.00,,---,0.00,cosweather0.1e,2013-08-19 04:51:00,
2013-08-18 21:56:00,77.2,57.2,29.57,ENE,65,0.0,0.0,51,0.00,,---,0.00,cosweather0.1e,2013-08-19 04:56:00,
2013-08-18 22:01:00,77.0,57.2,29.57,ENE,66,0.0,0.0,51,0.00,,---,0.00,cosweather0.1e,2013-08-19 05:01:00,
2013-08-18 22:06:00,76.8,59.0,29.57,ENE,66,0.0,0.0,52,0.00,,---,0.00,cosweather0.1e,2013-08-19 05:06:00,
2013-08-18 22:11:00,76.6,59.0,29.57,ENE,65,0.0,0.0,52,0.00,,---,0.00,cosweather0.1e,2013-08-19 05:11:00,
2013-08-18 22:16:00,76.5,59.0,29.57,ENE,76,0.0,0.0,53,0.00,,---,0.00,cosweather0.1e,2013-08-19 05:16:00,
2013-08-18 22:21:00,76.3,59.0,29.57,East,83,0.0,0.0,53,0.00,,---,0.00,cosweather0.1e,2013-08-19 05:21:00,
2013-08-18 22:26:00,75.9,57.2,29.57,East,79,0.0,0.0,54,0.00,,---,0.00,cosweather0.1e,2013-08-19 05:26:00,
2013-08-18 22:31:00,75.7,57.2,29.57,East,79,0.0,0.0,54,0.00,,---,0.00,cosweather0.1e,2013-08-19 05:31:00,
2013-08-18 22:36:00,75.6,57.2,29.57,East,79,0.0,0.0,55,0.00,,---,0.00,cosweather0.1e,2013-08-19 05:36:00,
2013-08-18 22:41:00,75.6,57.2,29.57,East,79,0.0,0.0,55,0.00,,---,0.00,cosweather0.1e,2013-08-19 05:41:00,
2013-08-18 22:46:00,75.6,57.2,29.57,East,79,0.0,0.0,55,0.00,,---,0.00,cosweather0.1e,2013-08-19 05:46:00,
2013-08-18 22:51:00,75.4,59.0,29.57,NNE,29,0.0,0.0,56,0.00,,---,0.00,cosweather0.1e,2013-08-19 05:51:00,
2013-08-18 22:57:00,75.4,59.0,29.57,NNE,29,0.0,0.0,56,0.00,,---,0.00,cosweather0.1e,2013-08-19 05:57:00,
2013-08-18 23:01:00,75.2,59.0,29.57,NNE,29,0.0,0.0,56,0.00,,---,0.00,cosweather0.1e,2013-08-19 06:01:00,
2013-08-18 23:06:00,75.0,59.0,29.57,NNE,29,0.0,0.0,56,0.00,,---,0.00,cosweather0.1e,2013-08-19 06:06:00,
2013-08-18 23:12:00,74.8,59.0,29.57,NNE,29,0.0,0.0,57,0.00,,---,0.00,cosweather0.1e,2013-08-19 06:12:00,
2013-08-18 23:17:00,74.8,59.0,29.57,NNE,29,0.0,0.0,57,0.00,,---,0.00,cosweather0.1e,2013-08-19 06:17:00,
2013-08-18 23:22:00,74.7,59.0,29.57,NNE,29,0.0,0.0,57,0.00,,---,0.00,cosweather0.1e,2013-08-19 06:22:00,
2013-08-18 23:27:00,74.7,59.0,29.57,NNE,29,0.0,0.0,57,0.00,,---,0.00,cosweather0.1e,2013-08-19 06:27:00,
2013-08-18 23:32:00,74.5,59.0,29.57,NNE,33,0.0,0.0,57,0.00,,---,0.00,cosweather0.1e,2013-08-19 06:32:00,
2013-08-18 23:37:00,74.1,57.2,29.57,NNE,19,0.0,0.0,57,0.00,,---,0.00,cosweather0.1e,2013-08-19 06:37:00,
2013-08-18 23:42:00,74.1,57.2,29.57,NNE,19,0.0,0.0,57,0.00,,---,0.00,cosweather0.1e,2013-08-19 06:42:00,
2013-08-18 23:47:00,74.1,57.2,29.57,NNE,19,0.0,0.0,57,0.00,,---,0.00,cosweather0.1e,2013-08-19 06:47:00,
2013-08-18 23:52:00,74.1,57.2,29.57,NNE,19,0.0,0.0,56,0.00,,---,0.00,cosweather0.1e,2013-08-19 06:52:00,
2013-08-18 23:57:00,73.9,57.2,29.57,NNE,19,0.0,0.0,56,0.00,,---,0.00,cosweather0.1e,2013-08-19 06:57:00,